Timestamp (UTC),Height (m)
2024-05-28T03:15:00Z,0.11
2024-05-28T03:30:00Z,0.11
2024-05-28T03:45:00Z,0.11
2024-05-28T04:00:00Z,0.11
2024-05-28T04:15:00Z,0.11
2024-05-28T04:30:00Z,0.11
2024-05-28T04:45:00Z,0.11
2024-05-28T05:00:00Z,0.11
2024-05-28T05:15:00Z,0.11
2024-05-28T05:30:00Z,0.11
2024-05-28T05:45:00Z,0.11
2024-05-28T06:00:00Z,0.11
2024-05-28T06:15:00Z,0.11
2024-05-28T06:30:00Z,0.11
2024-05-28T06:45:00Z,0.11
2024-05-28T07:00:00Z,0.11
2024-05-28T07:15:00Z,0.11
2024-05-28T07:30:00Z,0.11
2024-05-28T07:45:00Z,0.11
2024-05-28T08:00:00Z,0.11
2024-05-28T08:15:00Z,0.11
2024-05-28T08:30:00Z,0.11
2024-05-28T08:45:00Z,0.11
2024-05-28T09:00:00Z,0.11
2024-05-28T09:15:00Z,0.11
2024-05-28T09:30:00Z,0.11
2024-05-28T09:45:00Z,0.11
2024-05-28T10:00:00Z,0.11
2024-05-28T10:15:00Z,0.11
2024-05-28T10:30:00Z,0.11
2024-05-28T10:45:00Z,0.11
2024-05-28T11:00:00Z,0.11
2024-05-28T11:15:00Z,0.12
2024-05-28T11:30:00Z,0.12
2024-05-28T11:45:00Z,0.12
2024-05-28T12:00:00Z,0.12
2024-05-28T12:15:00Z,0.12
2024-05-28T12:30:00Z,0.12
2024-05-28T12:45:00Z,0.12
2024-05-28T13:00:00Z,0.12
2024-05-28T13:15:00Z,0.12
2024-05-28T13:30:00Z,0.12
2024-05-28T13:45:00Z,0.12
2024-05-28T14:00:00Z,0.12
2024-05-28T14:15:00Z,0.12
2024-05-28T14:30:00Z,0.12
2024-05-28T14:45:00Z,0.12
2024-05-28T15:00:00Z,0.12
2024-05-28T15:15:00Z,0.11
2024-05-28T15:30:00Z,0.11
2024-05-28T15:45:00Z,0.11
2024-05-28T16:00:00Z,0.11
2024-05-28T16:15:00Z,0.11
2024-05-28T16:30:00Z,0.11
2024-05-28T16:45:00Z,0.11
2024-05-28T17:00:00Z,0.11
2024-05-28T17:15:00Z,0.11
2024-05-28T17:30:00Z,0.11
2024-05-28T17:45:00Z,0.11
2024-05-28T18:00:00Z,0.11
2024-05-28T18:15:00Z,0.11
2024-05-28T18:30:00Z,0.11
2024-05-28T18:45:00Z,0.11
2024-05-28T19:00:00Z,0.11
2024-05-28T19:15:00Z,0.11
2024-05-28T19:30:00Z,0.11
2024-05-28T19:45:00Z,0.11
2024-05-28T20:00:00Z,0.11
2024-05-28T20:15:00Z,0.11
2024-05-28T20:30:00Z,0.11
2024-05-28T20:45:00Z,0.11
2024-05-28T21:00:00Z,0.11
2024-05-28T21:15:00Z,0.11
2024-05-28T21:30:00Z,0.11
2024-05-28T21:45:00Z,0.10
2024-05-28T22:00:00Z,0.10
2024-05-28T22:15:00Z,0.10
2024-05-28T22:30:00Z,0.10
2024-05-28T22:45:00Z,0.10
2024-05-28T23:00:00Z,0.10
2024-05-28T23:15:00Z,0.10
2024-05-28T23:30:00Z,0.10
2024-05-28T23:45:00Z,0.10
2024-05-29T00:00:00Z,0.10
2024-05-29T00:15:00Z,0.10
2024-05-29T00:30:00Z,0.10
2024-05-29T00:45:00Z,0.10
2024-05-29T01:00:00Z,0.10
2024-05-29T01:15:00Z,0.10
2024-05-29T01:30:00Z,0.10
2024-05-29T01:45:00Z,0.10
2024-05-29T02:00:00Z,0.10
2024-05-29T02:15:00Z,0.10
2024-05-29T02:30:00Z,0.10
2024-05-29T02:45:00Z,0.10
2024-05-29T03:00:00Z,0.10
2024-05-29T03:15:00Z,0.10
2024-05-29T03:30:00Z,0.10
2024-05-29T03:45:00Z,0.10
2024-05-29T04:00:00Z,0.10
2024-05-29T04:15:00Z,0.10
2024-05-29T04:30:00Z,0.10
2024-05-29T04:45:00Z,0.10
2024-05-29T05:00:00Z,0.10
2024-05-29T05:15:00Z,0.10
2024-05-29T05:30:00Z,0.10
2024-05-29T05:45:00Z,0.10
2024-05-29T06:00:00Z,0.10
2024-05-29T06:15:00Z,0.10
2024-05-29T06:30:00Z,0.10
2024-05-29T06:45:00Z,0.10
2024-05-29T07:00:00Z,0.10
2024-05-29T07:15:00Z,0.10
2024-05-29T07:30:00Z,0.10
2024-05-29T07:45:00Z,0.10
2024-05-29T08:00:00Z,0.10
2024-05-29T08:15:00Z,0.10
2024-05-29T08:30:00Z,0.10
2024-05-29T08:45:00Z,0.10
2024-05-29T09:00:00Z,0.10
2024-05-29T09:15:00Z,0.10
2024-05-29T09:30:00Z,0.10
2024-05-29T09:45:00Z,0.10
2024-05-29T10:00:00Z,0.10
2024-05-29T10:15:00Z,0.10
2024-05-29T10:30:00Z,0.10
2024-05-29T10:45:00Z,0.10
2024-05-29T11:00:00Z,0.10
2024-05-29T11:15:00Z,0.10
2024-05-29T11:30:00Z,0.10
2024-05-29T11:45:00Z,0.10
2024-05-29T12:00:00Z,0.10
2024-05-29T12:15:00Z,0.10
2024-05-29T12:30:00Z,0.10
2024-05-29T12:45:00Z,0.10
2024-05-29T13:00:00Z,0.10
2024-05-29T13:15:00Z,0.10
2024-05-29T13:30:00Z,0.10
2024-05-29T13:45:00Z,0.10
2024-05-29T14:00:00Z,0.10
2024-05-29T14:15:00Z,0.10
2024-05-29T14:30:00Z,0.10
2024-05-29T14:45:00Z,0.10
2024-05-29T15:00:00Z,0.10
2024-05-29T15:15:00Z,0.10
2024-05-29T15:30:00Z,0.10
2024-05-29T15:45:00Z,0.10
2024-05-29T16:00:00Z,0.10
2024-05-29T16:15:00Z,0.10
2024-05-29T16:30:00Z,0.10
2024-05-29T16:45:00Z,0.10
2024-05-29T17:00:00Z,0.10
2024-05-29T17:15:00Z,0.10
2024-05-29T17:30:00Z,0.10
2024-05-29T17:45:00Z,0.10
2024-05-29T18:00:00Z,0.10
2024-05-29T18:15:00Z,0.10
2024-05-29T18:30:00Z,0.10
2024-05-29T18:45:00Z,0.10
2024-05-29T19:00:00Z,0.10
2024-05-29T19:15:00Z,0.10
2024-05-29T19:30:00Z,0.10
2024-05-29T19:45:00Z,0.10
2024-05-29T20:00:00Z,0.10
2024-05-29T20:15:00Z,0.10
2024-05-29T20:30:00Z,0.10
2024-05-29T20:45:00Z,0.10
2024-05-29T21:00:00Z,0.10
2024-05-29T21:15:00Z,0.10
2024-05-29T21:30:00Z,0.10
2024-05-29T21:45:00Z,0.10
2024-05-29T22:00:00Z,0.10
2024-05-29T22:15:00Z,0.10
2024-05-29T22:30:00Z,0.10
2024-05-29T22:45:00Z,0.10
2024-05-29T23:00:00Z,0.10
2024-05-29T23:15:00Z,0.10
2024-05-29T23:30:00Z,0.10
2024-05-29T23:45:00Z,0.10
2024-05-30T00:00:00Z,0.10
2024-05-30T00:15:00Z,0.10
2024-05-30T00:30:00Z,0.10
2024-05-30T00:45:00Z,0.10
2024-05-30T01:00:00Z,0.10
2024-05-30T01:15:00Z,0.10
2024-05-30T01:30:00Z,0.10
2024-05-30T01:45:00Z,0.10
2024-05-30T02:00:00Z,0.10
2024-05-30T02:15:00Z,0.10
2024-05-30T02:30:00Z,0.10
2024-05-30T02:45:00Z,0.10
2024-05-30T03:00:00Z,0.10
2024-05-30T03:15:00Z,0.10
2024-05-30T03:30:00Z,0.10
2024-05-30T03:45:00Z,0.10
2024-05-30T04:00:00Z,0.10
2024-05-30T04:15:00Z,0.10
2024-05-30T04:30:00Z,0.10
2024-05-30T04:45:00Z,0.10
2024-05-30T05:00:00Z,0.10
2024-05-30T05:15:00Z,0.10
2024-05-30T05:30:00Z,0.10
2024-05-30T05:45:00Z,0.10
2024-05-30T06:00:00Z,0.10
2024-05-30T06:15:00Z,0.10
2024-05-30T06:30:00Z,0.10
2024-05-30T06:45:00Z,0.10
2024-05-30T07:00:00Z,0.10
2024-05-30T07:15:00Z,0.10
2024-05-30T07:30:00Z,0.10
2024-05-30T07:45:00Z,0.10
2024-05-30T08:00:00Z,0.10
2024-05-30T08:15:00Z,0.10
2024-05-30T08:30:00Z,0.10
2024-05-30T08:45:00Z,0.10
2024-05-30T09:00:00Z,0.10
2024-05-30T09:15:00Z,0.10
2024-05-30T09:30:00Z,0.10
2024-05-30T09:45:00Z,0.10
2024-05-30T10:00:00Z,0.10
2024-05-30T10:15:00Z,0.10
2024-05-30T10:30:00Z,0.10
2024-05-30T10:45:00Z,0.10
2024-05-30T11:00:00Z,0.10
2024-05-30T11:15:00Z,0.10
2024-05-30T11:30:00Z,0.10
2024-05-30T11:45:00Z,0.10
2024-05-30T12:00:00Z,0.10
2024-05-30T12:15:00Z,0.10
2024-05-30T12:30:00Z,0.10
2024-05-30T12:45:00Z,0.10
2024-05-30T13:00:00Z,0.10
2024-05-30T13:15:00Z,0.10
2024-05-30T13:30:00Z,0.10
2024-05-30T13:45:00Z,0.10
2024-05-30T14:00:00Z,0.10
2024-05-30T14:15:00Z,0.10
2024-05-30T14:30:00Z,0.10
2024-05-30T14:45:00Z,0.10
2024-05-30T15:00:00Z,0.10
2024-05-30T15:15:00Z,0.10
2024-05-30T15:30:00Z,0.10
2024-05-30T15:45:00Z,0.10
2024-05-30T16:00:00Z,0.19
2024-05-30T16:15:00Z,0.18
2024-05-30T16:30:00Z,0.19
2024-05-30T16:45:00Z,0.17
2024-05-30T17:00:00Z,0.25
2024-05-30T17:15:00Z,0.27
2024-05-30T17:30:00Z,0.25
2024-05-30T17:45:00Z,0.23
2024-05-30T18:00:00Z,0.21
2024-05-30T18:15:00Z,0.21
2024-05-30T18:30:00Z,0.22
2024-05-30T18:45:00Z,0.22
2024-05-30T19:00:00Z,0.22
2024-05-30T19:15:00Z,0.21
2024-05-30T19:30:00Z,0.20
2024-05-30T19:45:00Z,0.19
2024-05-30T20:00:00Z,0.18
2024-05-30T20:15:00Z,0.18
2024-05-30T20:30:00Z,0.17
2024-05-30T20:45:00Z,0.16
2024-05-30T21:00:00Z,0.16
2024-05-30T21:15:00Z,0.15
2024-05-30T21:30:00Z,0.15
2024-05-30T21:45:00Z,0.15
2024-05-30T22:00:00Z,0.14
2024-05-30T22:15:00Z,0.14
2024-05-30T22:30:00Z,0.14
2024-05-30T22:45:00Z,0.13
2024-05-30T23:00:00Z,0.13
2024-05-30T23:15:00Z,0.13
2024-05-30T23:30:00Z,0.13
2024-05-30T23:45:00Z,0.13
2024-05-31T00:00:00Z,0.12
2024-05-31T00:15:00Z,0.12
2024-05-31T00:30:00Z,0.12
2024-05-31T00:45:00Z,0.12
2024-05-31T01:00:00Z,0.12
2024-05-31T01:15:00Z,0.12
2024-05-31T01:30:00Z,0.12
2024-05-31T01:45:00Z,0.12
2024-05-31T02:00:00Z,0.12
2024-05-31T02:15:00Z,0.11
2024-05-31T02:30:00Z,0.11
2024-05-31T02:45:00Z,0.11
2024-05-31T03:00:00Z,0.11
2024-05-31T03:15:00Z,0.11
2024-05-31T03:30:00Z,0.11
2024-05-31T03:45:00Z,0.11
2024-05-31T04:00:00Z,0.11
2024-05-31T04:15:00Z,0.11
2024-05-31T04:30:00Z,0.11
2024-05-31T04:45:00Z,0.11
2024-05-31T05:00:00Z,0.11
2024-05-31T05:15:00Z,0.11
2024-05-31T05:30:00Z,0.11
2024-05-31T05:45:00Z,0.11
2024-05-31T06:00:00Z,0.11
2024-05-31T06:15:00Z,0.11
2024-05-31T06:30:00Z,0.11
2024-05-31T06:45:00Z,0.11
2024-05-31T07:00:00Z,0.11
2024-05-31T07:15:00Z,0.11
2024-05-31T07:30:00Z,0.11
2024-05-31T07:45:00Z,0.11
2024-05-31T08:00:00Z,0.11
2024-05-31T08:15:00Z,0.11
2024-05-31T08:30:00Z,0.10
2024-05-31T08:45:00Z,0.10
2024-05-31T09:00:00Z,0.10
2024-05-31T09:15:00Z,0.10
2024-05-31T09:30:00Z,0.10
2024-05-31T09:45:00Z,0.10
2024-05-31T10:00:00Z,0.10
2024-05-31T10:15:00Z,0.10
2024-05-31T10:30:00Z,0.10
2024-05-31T10:45:00Z,0.10
2024-05-31T11:00:00Z,0.10
2024-05-31T11:15:00Z,0.10
2024-05-31T11:30:00Z,0.10
2024-05-31T11:45:00Z,0.10
2024-05-31T12:00:00Z,0.10
2024-05-31T12:15:00Z,0.10
2024-05-31T12:30:00Z,0.10
2024-05-31T12:45:00Z,0.10
2024-05-31T13:00:00Z,0.10
2024-05-31T13:15:00Z,0.10
2024-05-31T13:30:00Z,0.10
2024-05-31T13:45:00Z,0.10
2024-05-31T14:00:00Z,0.10
2024-05-31T14:15:00Z,0.10
2024-05-31T14:30:00Z,0.10
2024-05-31T14:45:00Z,0.10
2024-05-31T15:00:00Z,0.10
2024-05-31T15:15:00Z,0.10
2024-05-31T15:30:00Z,0.10
2024-05-31T15:45:00Z,0.10
2024-05-31T16:00:00Z,0.10
2024-05-31T16:15:00Z,0.10
2024-05-31T16:30:00Z,0.10
2024-05-31T16:45:00Z,0.10
2024-05-31T17:00:00Z,0.10
2024-05-31T17:15:00Z,0.10
2024-05-31T17:30:00Z,0.10
2024-05-31T17:45:00Z,0.10
2024-05-31T18:00:00Z,0.10
2024-05-31T18:15:00Z,0.10
2024-05-31T18:30:00Z,0.10
2024-05-31T18:45:00Z,0.10
2024-05-31T19:00:00Z,0.10
2024-05-31T19:15:00Z,0.10
2024-05-31T19:30:00Z,0.10
2024-05-31T19:45:00Z,0.10
2024-05-31T20:00:00Z,0.10
2024-05-31T20:15:00Z,0.10
2024-05-31T20:30:00Z,0.10
2024-05-31T20:45:00Z,0.10
2024-05-31T21:00:00Z,0.10
2024-05-31T21:15:00Z,0.10
2024-05-31T21:30:00Z,0.10
2024-05-31T21:45:00Z,0.10
2024-05-31T22:00:00Z,0.10
2024-05-31T22:15:00Z,0.10
2024-05-31T22:30:00Z,0.10
2024-05-31T22:45:00Z,0.10
2024-05-31T23:00:00Z,0.10
2024-05-31T23:15:00Z,0.10
2024-05-31T23:30:00Z,0.10
2024-05-31T23:45:00Z,0.10
2024-06-01T00:00:00Z,0.10
2024-06-01T00:15:00Z,0.10
2024-06-01T00:30:00Z,0.10
2024-06-01T00:45:00Z,0.10
2024-06-01T01:00:00Z,0.10
2024-06-01T01:15:00Z,0.10
2024-06-01T01:30:00Z,0.10
2024-06-01T01:45:00Z,0.10
2024-06-01T02:00:00Z,0.10
2024-06-01T02:15:00Z,0.10
2024-06-01T02:30:00Z,0.10
2024-06-01T02:45:00Z,0.10
2024-06-01T03:00:00Z,0.10
2024-06-01T03:15:00Z,0.10
2024-06-01T03:30:00Z,0.10
2024-06-01T03:45:00Z,0.10
2024-06-01T04:00:00Z,0.10
2024-06-01T04:15:00Z,0.10
2024-06-01T04:30:00Z,0.10
2024-06-01T04:45:00Z,0.10
2024-06-01T05:00:00Z,0.10
2024-06-01T05:15:00Z,0.10
2024-06-01T05:30:00Z,0.10
2024-06-01T05:45:00Z,0.10
2024-06-01T06:00:00Z,0.10
2024-06-01T06:15:00Z,0.10
2024-06-01T06:30:00Z,0.10
2024-06-01T06:45:00Z,0.10
2024-06-01T07:00:00Z,0.10
2024-06-01T07:15:00Z,0.10
2024-06-01T07:30:00Z,0.10
2024-06-01T07:45:00Z,0.10
2024-06-01T08:00:00Z,0.10
2024-06-01T08:15:00Z,0.10
2024-06-01T08:30:00Z,0.10
2024-06-01T08:45:00Z,0.10
2024-06-01T09:00:00Z,0.10
2024-06-01T09:15:00Z,0.10
2024-06-01T09:30:00Z,0.10
2024-06-01T09:45:00Z,0.10
2024-06-01T10:00:00Z,0.10
2024-06-01T10:15:00Z,0.10
2024-06-01T10:30:00Z,0.10
2024-06-01T10:45:00Z,0.10
2024-06-01T11:00:00Z,0.10
2024-06-01T11:15:00Z,0.10
2024-06-01T11:30:00Z,0.10
2024-06-01T11:45:00Z,0.10
2024-06-01T12:00:00Z,0.10
2024-06-01T12:15:00Z,0.10
2024-06-01T12:30:00Z,0.10
2024-06-01T12:45:00Z,0.10
2024-06-01T13:00:00Z,0.10
2024-06-01T13:15:00Z,0.10
2024-06-01T13:30:00Z,0.10
2024-06-01T13:45:00Z,0.10
2024-06-01T14:00:00Z,0.10
2024-06-01T14:15:00Z,0.10
2024-06-01T14:30:00Z,0.10
2024-06-01T14:45:00Z,0.10
2024-06-01T15:00:00Z,0.10
2024-06-01T15:15:00Z,0.10
2024-06-01T15:30:00Z,0.10
2024-06-01T15:45:00Z,0.10
2024-06-01T16:00:00Z,0.10
2024-06-01T16:15:00Z,0.10
2024-06-01T16:30:00Z,0.10
2024-06-01T16:45:00Z,0.10
2024-06-01T17:00:00Z,0.10
2024-06-01T17:15:00Z,0.10
2024-06-01T17:30:00Z,0.10
2024-06-01T17:45:00Z,0.10
2024-06-01T18:00:00Z,0.10
2024-06-01T18:15:00Z,0.10
2024-06-01T18:30:00Z,0.10
2024-06-01T18:45:00Z,0.10
2024-06-01T19:00:00Z,0.10
2024-06-01T19:15:00Z,0.10
2024-06-01T19:30:00Z,0.10
2024-06-01T19:45:00Z,0.10
2024-06-01T20:00:00Z,0.10
2024-06-01T20:15:00Z,0.10
2024-06-01T20:30:00Z,0.10
2024-06-01T20:45:00Z,0.10
2024-06-01T21:00:00Z,0.10
2024-06-01T21:15:00Z,0.10
2024-06-01T21:30:00Z,0.10
2024-06-01T21:45:00Z,0.10
2024-06-01T22:00:00Z,0.10
2024-06-01T22:15:00Z,0.10
2024-06-01T22:30:00Z,0.10
2024-06-01T22:45:00Z,0.10
2024-06-01T23:00:00Z,0.10
2024-06-01T23:15:00Z,0.10
2024-06-01T23:30:00Z,0.10
2024-06-01T23:45:00Z,0.10
2024-06-02T00:00:00Z,0.10
2024-06-02T00:15:00Z,0.10
2024-06-02T00:30:00Z,0.10
2024-06-02T00:45:00Z,0.10
2024-06-02T01:00:00Z,0.10
2024-06-02T01:15:00Z,0.10
2024-06-02T01:30:00Z,0.10
2024-06-02T01:45:00Z,0.10
2024-06-02T02:00:00Z,0.10
2024-06-02T02:15:00Z,0.10
2024-06-02T02:30:00Z,0.10
2024-06-02T02:45:00Z,0.10